,,,PA_Meas_PMT16A,,PR_Meas_QMR101_102,,RH_Meas_QMH101,,SR_Meas_QMS101,,TA_Meas_QMH101,,GenWind,,GenWind,
date,time,status,PA,status,PR,status,RH,status,SR,status,TA,status,DirAvg,status,SpdAvg,
2011-08-23, 00:00:04,VALID,1010.385,VALID,0.0,VALID,104.0,VALID,0.0,VALID,22.7,VALID,337.0,VALID,0.4,
2011-08-23, 00:01:04,VALID,1010.375,VALID,0.0,VALID,104.0,VALID,0.0,VALID,22.739,VALID,337.0,VALID,0.298,
2011-08-23, 00:02:04,VALID,1010.379,VALID,0.0,VALID,104.0,VALID,0.0,VALID,22.679,VALID,337.0,VALID,0.196,
2011-08-23, 00:03:04,VALID,1010.393,VALID,0.0,VALID,104.0,VALID,0.0,VALID,22.681,VALID,337.0,VALID,0.195,
2011-08-23, 00:04:04,VALID,1010.416,VALID,0.0,VALID,104.0,VALID,0.0,VALID,22.681,VALID,337.0,VALID,0.168,
2011-08-23, 00:05:04,VALID,1010.43,VALID,0.0,VALID,104.0,VALID,0.0,VALID,22.64,VALID,337.0,VALID,0.056,
2011-08-23, 00:06:04,VALID,1010.422,VALID,0.0,VALID,104.0,VALID,0.0,VALID,22.621,VALID,337.0,VALID,0.104,
2011-08-23, 00:07:04,VALID,1010.425,VALID,0.0,VALID,104.0,VALID,0.0,VALID,22.642,VALID,337.0,VALID,0.38,
2011-08-23, 00:08:04,VALID,1010.455,VALID,0.0,VALID,104.0,VALID,0.0,VALID,22.642,VALID,337.0,VALID,0.246,
2011-08-23, 00:09:04,VALID,1010.475,VALID,0.0,VALID,104.0,VALID,0.106,VALID,22.601,VALID,337.0,VALID,0.199,
2011-08-23, 00:10:04,VALID,1010.45,VALID,0.0,VALID,104.0,VALID,0.0,VALID,22.603,VALID,337.0,VALID,0.124,
2011-08-23, 00:11:04,VALID,1010.459,VALID,0.0,VALID,104.0,VALID,0.0,VALID,22.545,VALID,337.0,VALID,0.0,
2011-08-23, 00:12:04,VALID,1010.42,VALID,0.0,VALID,104.0,VALID,0.0,VALID,22.525,VALID,337.0,VALID,0.0,
2011-08-23, 00:13:04,VALID,1010.41,VALID,0.0,VALID,104.0,VALID,0.0,VALID,22.467,VALID,337.0,VALID,0.0,
2011-08-23, 00:14:04,VALID,1010.403,VALID,0.0,VALID,104.0,VALID,0.0,VALID,22.408,VALID,337.0,VALID,0.0,
2011-08-23, 00:15:04,VALID,1010.38,VALID,0.0,VALID,104.0,VALID,0.0,VALID,22.387,VALID,337.0,VALID,0.0,
2011-08-23, 00:16:04,VALID,1010.368,VALID,0.0,VALID,104.0,VALID,0.0,VALID,22.389,VALID,337.0,VALID,0.0,
2011-08-23, 00:17:04,VALID,1010.371,VALID,0.0,VALID,104.0,VALID,0.106,VALID,22.389,VALID,337.0,VALID,0.191,
2011-08-23, 00:18:04,VALID,1010.37,VALID,0.0,VALID,104.0,VALID,0.0,VALID,22.368,VALID,337.0,VALID,0.229,
2011-08-23, 00:19:04,VALID,1010.358,VALID,0.0,VALID,104.0,VALID,0.212,VALID,22.428,VALID,337.0,VALID,0.291,
2011-08-23, 00:20:04,VALID,1010.352,VALID,0.0,VALID,104.0,VALID,0.106,VALID,22.407,VALID,337.0,VALID,0.368,
2011-08-23, 00:21:04,VALID,1010.34,VALID,0.0,VALID,104.0,VALID,0.106,VALID,22.408,VALID,337.0,VALID,0.327,
2011-08-23, 00:22:04,VALID,1010.291,VALID,0.0,VALID,104.0,VALID,0.106,VALID,22.389,VALID,337.0,VALID,0.377,
2011-08-23, 00:23:04,VALID,1010.291,VALID,0.0,VALID,104.0,VALID,0.106,VALID,22.389,VALID,337.0,VALID,0.321,
2011-08-23, 00:24:04,VALID,1010.258,VALID,0.0,VALID,104.0,VALID,0.106,VALID,22.369,VALID,337.0,VALID,0.227,
2011-08-23, 00:25:04,VALID,1010.222,VALID,0.0,VALID,104.0,VALID,0.106,VALID,22.35,VALID,337.0,VALID,0.218,
2011-08-23, 00:26:04,VALID,1010.211,VALID,0.0,VALID,104.0,VALID,0.106,VALID,22.348,VALID,337.0,VALID,0.213,
2011-08-23, 00:27:04,VALID,1010.195,VALID,0.0,VALID,104.0,VALID,0.106,VALID,22.387,VALID,337.0,VALID,0.187,
2011-08-23, 00:28:04,VALID,1010.216,VALID,0.0,VALID,104.0,VALID,0.106,VALID,22.426,VALID,337.0,VALID,0.359,
2011-08-23, 00:29:04,VALID,1010.184,VALID,0.0,VALID,104.0,VALID,0.106,VALID,22.467,VALID,337.0,VALID,0.276,
2011-08-23, 00:30:04,VALID,1010.193,VALID,0.0,VALID,104.0,VALID,0.106,VALID,22.447,VALID,337.0,VALID,0.208,
2011-08-23, 00:31:04,VALID,1010.178,VALID,0.0,VALID,104.0,VALID,0.106,VALID,22.447,VALID,337.0,VALID,0.077,
2011-08-23, 00:32:04,VALID,1010.175,VALID,0.0,VALID,104.0,VALID,0.106,VALID,22.408,VALID,337.0,VALID,0.32,
2011-08-23, 00:33:04,VALID,1010.162,VALID,0.0,VALID,104.0,VALID,0.106,VALID,22.348,VALID,337.0,VALID,0.266,
2011-08-23, 00:34:04,VALID,1010.167,VALID,0.0,VALID,104.0,VALID,0.106,VALID,22.329,VALID,337.0,VALID,0.209,
2011-08-23, 00:35:04,VALID,1010.151,VALID,0.0,VALID,104.0,VALID,0.106,VALID,22.29,VALID,337.0,VALID,0.279,
2011-08-23, 00:36:04,VALID,1010.174,VALID,0.0,VALID,104.0,VALID,0.106,VALID,22.291,VALID,337.0,VALID,0.151,
2011-08-23, 00:37:04,VALID,1010.131,VALID,0.0,VALID,104.0,VALID,0.106,VALID,22.291,VALID,337.0,VALID,0.0,
2011-08-23, 00:38:04,VALID,1010.13,VALID,0.0,VALID,104.0,VALID,0.106,VALID,22.251,VALID,337.0,VALID,0.0,
2011-08-23, 00:39:04,VALID,1010.1,VALID,0.0,VALID,104.0,VALID,0.106,VALID,22.251,VALID,337.0,VALID,0.0,
2011-08-23, 00:40:04,VALID,1010.098,VALID,0.0,VALID,104.0,VALID,0.106,VALID,22.251,VALID,337.0,VALID,0.0,
2011-08-23, 00:41:04,VALID,1010.111,VALID,0.0,VALID,104.0,VALID,0.0,VALID,22.27,VALID,337.0,VALID,0.0,
2011-08-23, 00:42:04,VALID,1010.117,VALID,0.0,VALID,104.0,VALID,0.106,VALID,22.27,VALID,337.0,VALID,0.0,
2011-08-23, 00:43:04,VALID,1010.116,VALID,0.0,VALID,104.0,VALID,0.106,VALID,22.251,VALID,337.0,VALID,0.0,
2011-08-23, 00:44:04,VALID,1010.089,VALID,0.0,VALID,104.0,VALID,0.106,VALID,22.251,VALID,337.0,VALID,0.0,
2011-08-23, 00:45:04,VALID,1010.094,VALID,0.0,VALID,104.0,VALID,0.106,VALID,22.231,VALID,337.0,VALID,0.0,
2011-08-23, 00:46:04,VALID,1010.109,VALID,0.0,VALID,104.0,VALID,0.106,VALID,22.231,VALID,337.0,VALID,0.0,
2011-08-23, 00:47:04,VALID,1010.075,VALID,0.0,VALID,104.0,VALID,0.106,VALID,22.252,VALID,337.0,VALID,0.0,
2011-08-23, 00:48:04,VALID,1010.043,VALID,0.0,VALID,104.0,VALID,0.106,VALID,22.272,VALID,337.0,VALID,0.0,
2011-08-23, 00:49:04,VALID,1010.053,VALID,0.0,VALID,104.0,VALID,0.106,VALID,22.272,VALID,337.0,VALID,0.0,
2011-08-23, 00:50:04,VALID,1010.06,VALID,0.0,VALID,104.0,VALID,0.106,VALID,22.27,VALID,337.0,VALID,0.0,
2011-08-23, 00:51:04,VALID,1010.034,VALID,0.0,VALID,104.0,VALID,0.106,VALID,22.311,VALID,337.0,VALID,0.0,
2011-08-23, 00:52:04,VALID,1010.001,VALID,0.0,VALID,104.0,VALID,0.106,VALID,22.311,VALID,337.0,VALID,0.0,
2011-08-23, 00:53:04,VALID,1009.959,VALID,0.0,VALID,104.0,VALID,0.0,VALID,22.329,VALID,337.0,VALID,0.0,
2011-08-23, 00:54:04,VALID,1009.94,VALID,0.0,VALID,104.0,VALID,0.106,VALID,22.329,VALID,337.0,VALID,0.0,
2011-08-23, 00:55:04,VALID,1009.895,VALID,0.0,VALID,104.0,VALID,0.106,VALID,22.33,VALID,337.0,VALID,0.0,
2011-08-23, 00:56:04,VALID,1009.877,VALID,0.0,VALID,104.0,VALID,0.0,VALID,22.348,VALID,337.0,VALID,0.0,
2011-08-23, 00:57:05,VALID,1009.829,VALID,0.0,VALID,104.0,VALID,0.106,VALID,22.369,VALID,337.0,VALID,0.0,
2011-08-23, 00:58:05,VALID,1009.844,VALID,0.0,VALID,104.0,VALID,0.106,VALID,22.329,VALID,337.0,VALID,0.0,
2011-08-23, 00:59:05,VALID,1009.817,VALID,0.0,VALID,104.0,VALID,0.212,VALID,22.329,VALID,337.0,VALID,0.0,
2011-08-23, 01:00:05,VALID,1009.833,VALID,0.0,VALID,104.0,VALID,0.106,VALID,22.33,VALID,337.0,VALID,0.0,
2011-08-23, 01:01:05,VALID,1009.83,VALID,0.0,VALID,104.0,VALID,0.106,VALID,22.29,VALID,337.0,VALID,0.0,
2011-08-23, 01:02:05,VALID,1009.84,VALID,0.0,VALID,104.0,VALID,0.106,VALID,22.291,VALID,337.0,VALID,0.0,
2011-08-23, 01:03:05,VALID,1009.829,VALID,0.0,VALID,104.0,VALID,0.106,VALID,22.27,VALID,337.0,VALID,0.0,
2011-08-23, 01:04:05,VALID,1009.831,VALID,0.0,VALID,104.0,VALID,0.0,VALID,22.272,VALID,337.0,VALID,0.0,
2011-08-23, 01:05:05,VALID,1009.852,VALID,0.0,VALID,104.0,VALID,0.0,VALID,22.293,VALID,337.0,VALID,0.0,
2011-08-23, 01:06:05,VALID,1009.84,VALID,0.0,VALID,104.0,VALID,0.0,VALID,22.252,VALID,337.0,VALID,0.0,
2011-08-23, 01:07:05,VALID,1009.869,VALID,0.0,VALID,104.0,VALID,0.0,VALID,22.252,VALID,337.0,VALID,0.254,
2011-08-23, 01:08:05,VALID,1009.866,VALID,0.0,VALID,104.0,VALID,0.0,VALID,22.252,VALID,337.0,VALID,0.145,
2011-08-23, 01:09:05,VALID,1009.892,VALID,0.0,VALID,104.0,VALID,0.0,VALID,22.235,VALID,337.0,VALID,0.195,
2011-08-23, 01:10:05,VALID,1009.893,VALID,0.0,VALID,104.0,VALID,0.0,VALID,22.213,VALID,337.0,VALID,0.129,
2011-08-23, 01:11:05,VALID,1009.843,VALID,0.0,VALID,104.0,VALID,0.0,VALID,22.254,VALID,337.0,VALID,0.071,
2011-08-23, 01:12:05,VALID,1009.874,VALID,0.0,VALID,104.0,VALID,0.0,VALID,22.213,VALID,337.0,VALID,0.18,
2011-08-23, 01:13:05,VALID,1009.873,VALID,0.0,VALID,104.0,VALID,0.0,VALID,22.213,VALID,337.0,VALID,0.287,
2011-08-23, 01:14:05,VALID,1009.858,VALID,0.0,VALID,104.0,VALID,0.0,VALID,22.176,VALID,337.0,VALID,0.145,
2011-08-23, 01:15:05,VALID,1009.88,VALID,0.0,VALID,104.0,VALID,0.0,VALID,22.097,VALID,337.0,VALID,0.345,
2011-08-23, 01:16:05,VALID,1009.863,VALID,0.0,VALID,104.0,VALID,0.0,VALID,22.077,VALID,337.0,VALID,0.317,
2011-08-23, 01:17:05,VALID,1009.878,VALID,0.0,VALID,104.0,VALID,0.0,VALID,22.077,VALID,337.0,VALID,0.213,
2011-08-23, 01:18:05,VALID,1009.896,VALID,0.0,VALID,104.0,VALID,0.0,VALID,22.098,VALID,337.0,VALID,0.112,
2011-08-23, 01:19:05,VALID,1009.885,VALID,0.0,VALID,104.0,VALID,0.0,VALID,22.097,VALID,337.0,VALID,0.152,
2011-08-23, 01:20:05,VALID,1009.895,VALID,0.0,VALID,104.0,VALID,0.0,VALID,22.098,VALID,337.0,VALID,0.126,
2011-08-23, 01:21:05,VALID,1009.876,VALID,0.0,VALID,104.0,VALID,0.0,VALID,22.079,VALID,337.0,VALID,0.046,
2011-08-23, 01:22:05,VALID,1009.83,VALID,0.0,VALID,104.0,VALID,0.0,VALID,22.038,VALID,337.0,VALID,0.0,
2011-08-23, 01:23:05,VALID,1009.828,VALID,0.0,VALID,104.0,VALID,0.0,VALID,22.058,VALID,337.0,VALID,0.183,
2011-08-23, 01:24:05,VALID,1009.793,VALID,0.0,VALID,104.0,VALID,0.0,VALID,22.058,VALID,337.0,VALID,0.106,
2011-08-23, 01:25:05,VALID,1009.765,VALID,0.0,VALID,104.0,VALID,0.0,VALID,22.059,VALID,336.0,VALID,0.0,
2011-08-23, 01:26:05,VALID,1009.776,VALID,0.0,VALID,104.0,VALID,0.0,VALID,22.019,VALID,337.0,VALID,0.0,
2011-08-23, 01:27:05,VALID,1009.756,VALID,0.0,VALID,104.0,VALID,0.0,VALID,22.019,VALID,337.0,VALID,0.223,
2011-08-23, 01:28:05,VALID,1009.735,VALID,0.0,VALID,104.0,VALID,0.0,VALID,22.038,VALID,337.0,VALID,0.13,
2011-08-23, 01:29:05,VALID,1009.758,VALID,0.0,VALID,104.0,VALID,0.0,VALID,22.038,VALID,337.0,VALID,0.064,
2011-08-23, 01:30:05,VALID,1009.749,VALID,0.0,VALID,104.0,VALID,0.0,VALID,22.019,VALID,337.0,VALID,0.0,
2011-08-23, 01:31:05,VALID,1009.72,VALID,0.0,VALID,104.0,VALID,0.0,VALID,21.999,VALID,337.0,VALID,0.341,
2011-08-23, 01:32:05,VALID,1009.735,VALID,0.0,VALID,104.0,VALID,0.0,VALID,21.98,VALID,337.0,VALID,0.099,
2011-08-23, 01:33:05,VALID,1009.692,VALID,0.0,VALID,104.0,VALID,0.0,VALID,21.981,VALID,337.0,VALID,0.0,
2011-08-23, 01:34:05,VALID,1009.689,VALID,0.0,VALID,104.0,VALID,0.106,VALID,21.96,VALID,337.0,VALID,0.0,
2011-08-23, 01:35:05,VALID,1009.712,VALID,0.0,VALID,104.0,VALID,0.106,VALID,21.96,VALID,337.0,VALID,0.0,
2011-08-23, 01:36:05,VALID,1009.691,VALID,0.0,VALID,104.0,VALID,0.0,VALID,21.92,VALID,337.0,VALID,0.0,
2011-08-23, 01:37:05,VALID,1009.707,VALID,0.0,VALID,104.0,VALID,0.106,VALID,21.9,VALID,337.0,VALID,0.359,
2011-08-23, 01:38:05,VALID,1009.698,VALID,0.0,VALID,104.0,VALID,0.0,VALID,21.921,VALID,337.0,VALID,0.352,
2011-08-23, 01:39:05,VALID,1009.708,VALID,0.0,VALID,104.0,VALID,0.106,VALID,21.941,VALID,337.0,VALID,0.414,
2011-08-23, 01:40:05,VALID,1009.709,VALID,0.0,VALID,104.0,VALID,0.106,VALID,21.96,VALID,337.0,VALID,0.311,
2011-08-23, 01:41:05,VALID,1009.703,VALID,0.0,VALID,104.0,VALID,0.0,VALID,21.941,VALID,337.0,VALID,0.251,
2011-08-23, 01:42:05,VALID,1009.677,VALID,0.0,VALID,104.0,VALID,0.106,VALID,21.941,VALID,337.0,VALID,0.399,
2011-08-23, 01:43:05,VALID,1009.702,VALID,0.0,VALID,104.0,VALID,0.106,VALID,21.902,VALID,337.0,VALID,0.271,
2011-08-23, 01:44:05,VALID,1009.687,VALID,0.0,VALID,104.0,VALID,0.106,VALID,21.902,VALID,337.0,VALID,0.152,
2011-08-23, 01:45:05,VALID,1009.682,VALID,0.0,VALID,104.0,VALID,0.106,VALID,21.882,VALID,337.0,VALID,0.0,
2011-08-23, 01:46:05,VALID,1009.694,VALID,0.0,VALID,104.0,VALID,0.106,VALID,21.822,VALID,337.0,VALID,0.0,
2011-08-23, 01:47:05,VALID,1009.666,VALID,0.0,VALID,104.0,VALID,0.106,VALID,21.803,VALID,337.0,VALID,0.0,
2011-08-23, 01:48:05,VALID,1009.661,VALID,0.0,VALID,104.0,VALID,0.106,VALID,21.803,VALID,337.0,VALID,0.127,
2011-08-23, 01:49:05,VALID,1009.652,VALID,0.0,VALID,104.0,VALID,0.106,VALID,21.826,VALID,337.0,VALID,0.094,
2011-08-23, 01:50:05,VALID,1009.654,VALID,0.0,VALID,104.0,VALID,0.106,VALID,21.803,VALID,337.0,VALID,0.0,
2011-08-23, 01:51:05,VALID,1009.612,VALID,0.0,VALID,104.0,VALID,0.0,VALID,21.804,VALID,337.0,VALID,0.0,
2011-08-23, 01:52:05,VALID,1009.612,VALID,0.0,VALID,104.0,VALID,0.0,VALID,21.746,VALID,337.0,VALID,0.0,
2011-08-23, 01:53:05,VALID,1009.622,VALID,0.0,VALID,104.0,VALID,0.0,VALID,21.727,VALID,337.0,VALID,0.0,
2011-08-23, 01:54:05,VALID,1009.627,VALID,0.0,VALID,104.0,VALID,0.106,VALID,21.727,VALID,337.0,VALID,0.138,
2011-08-23, 01:55:05,VALID,1009.632,VALID,0.0,VALID,104.0,VALID,0.106,VALID,21.725,VALID,337.0,VALID,0.169,
2011-08-23, 01:56:05,VALID,1009.637,VALID,0.0,VALID,104.0,VALID,0.106,VALID,21.746,VALID,337.0,VALID,0.205,
2011-08-23, 01:57:05,VALID,1009.657,VALID,0.0,VALID,104.0,VALID,0.106,VALID,21.705,VALID,337.0,VALID,0.432,
2011-08-23, 01:58:05,VALID,1009.654,VALID,0.0,VALID,104.0,VALID,0.106,VALID,21.725,VALID,337.0,VALID,0.455,
2011-08-23, 01:59:05,VALID,1009.652,VALID,0.0,VALID,104.0,VALID,0.106,VALID,21.744,VALID,337.0,VALID,0.489,
2011-08-23, 02:00:05,VALID,1009.649,VALID,0.0,VALID,104.0,VALID,0.106,VALID,21.783,VALID,337.0,VALID,0.557,
2011-08-23, 02:01:05,VALID,1009.678,VALID,0.0,VALID,104.0,VALID,0.106,VALID,21.882,VALID,337.0,VALID,0.661,
2011-08-23, 02:02:05,VALID,1009.689,VALID,0.0,VALID,104.0,VALID,0.106,VALID,21.921,VALID,337.0,VALID,0.595,
2011-08-23, 02:03:05,VALID,1009.666,VALID,0.0,VALID,104.0,VALID,0.106,VALID,21.939,VALID,337.0,VALID,0.268,
2011-08-23, 02:04:05,VALID,1009.663,VALID,0.0,VALID,104.0,VALID,0.106,VALID,21.921,VALID,337.0,VALID,0.127,
2011-08-23, 02:05:05,VALID,1009.665,VALID,0.0,VALID,104.0,VALID,0.0,VALID,21.882,VALID,337.0,VALID,0.006,
2011-08-23, 02:06:05,VALID,1009.665,VALID,0.0,VALID,104.0,VALID,0.106,VALID,21.863,VALID,337.0,VALID,0.217,
2011-08-23, 02:07:05,VALID,1009.656,VALID,0.0,VALID,104.0,VALID,0.106,VALID,21.863,VALID,337.0,VALID,0.222,
2011-08-23, 02:08:05,VALID,1009.65,VALID,0.0,VALID,104.0,VALID,0.0,VALID,21.863,VALID,337.0,VALID,0.309,
2011-08-23, 02:09:05,VALID,1009.669,VALID,0.0,VALID,104.0,VALID,0.106,VALID,21.882,VALID,337.0,VALID,0.334,
2011-08-23, 02:10:05,VALID,1009.657,VALID,0.0,VALID,104.0,VALID,0.106,VALID,21.861,VALID,337.0,VALID,0.318,
2011-08-23, 02:11:05,VALID,1009.672,VALID,0.0,VALID,104.0,VALID,0.106,VALID,21.881,VALID,337.0,VALID,0.101,
2011-08-23, 02:12:05,VALID,1009.688,VALID,0.0,VALID,104.0,VALID,0.106,VALID,21.881,VALID,337.0,VALID,0.327,
2011-08-23, 02:13:05,VALID,1009.68,VALID,0.0,VALID,104.0,VALID,0.106,VALID,21.902,VALID,337.0,VALID,0.291,
2011-08-23, 02:14:05,VALID,1009.692,VALID,0.0,VALID,104.0,VALID,0.106,VALID,21.882,VALID,337.0,VALID,0.437,
2011-08-23, 02:15:05,VALID,1009.697,VALID,0.0,VALID,104.0,VALID,0.106,VALID,21.902,VALID,337.0,VALID,0.338,
2011-08-23, 02:16:05,VALID,1009.681,VALID,0.0,VALID,104.0,VALID,0.106,VALID,21.902,VALID,337.0,VALID,0.334,
2011-08-23, 02:17:05,VALID,1009.652,VALID,0.0,VALID,104.0,VALID,0.106,VALID,21.881,VALID,337.0,VALID,0.271,
2011-08-23, 02:18:05,VALID,1009.667,VALID,0.0,VALID,104.0,VALID,0.106,VALID,21.882,VALID,337.0,VALID,0.379,
2011-08-23, 02:19:05,VALID,1009.664,VALID,0.0,VALID,104.0,VALID,0.0,VALID,21.863,VALID,337.0,VALID,0.359,
2011-08-23, 02:20:05,VALID,1009.673,VALID,0.0,VALID,104.0,VALID,0.0,VALID,21.863,VALID,337.0,VALID,0.279,
2011-08-23, 02:21:05,VALID,1009.695,VALID,0.0,VALID,104.0,VALID,0.0,VALID,21.843,VALID,337.0,VALID,0.195,
2011-08-23, 02:22:05,VALID,1009.704,VALID,0.0,VALID,104.0,VALID,0.106,VALID,21.803,VALID,337.0,VALID,0.106,
2011-08-23, 02:23:05,VALID,1009.709,VALID,0.0,VALID,104.0,VALID,0.106,VALID,21.804,VALID,337.0,VALID,0.218,
2011-08-23, 02:24:05,VALID,1009.702,VALID,0.0,VALID,104.0,VALID,0.106,VALID,21.804,VALID,337.0,VALID,0.332,
2011-08-23, 02:25:05,VALID,1009.699,VALID,0.0,VALID,104.0,VALID,0.106,VALID,21.804,VALID,337.0,VALID,0.463,
2011-08-23, 02:26:05,VALID,1009.673,VALID,0.0,VALID,104.0,VALID,0.106,VALID,21.824,VALID,337.0,VALID,0.337,
2011-08-23, 02:27:05,VALID,1009.651,VALID,0.0,VALID,104.0,VALID,0.106,VALID,21.803,VALID,337.0,VALID,0.349,
2011-08-23, 02:28:05,VALID,1009.653,VALID,0.0,VALID,104.0,VALID,0.106,VALID,21.824,VALID,337.0,VALID,0.269,
2011-08-23, 02:29:05,VALID,1009.623,VALID,0.0,VALID,104.0,VALID,0.106,VALID,21.803,VALID,337.0,VALID,0.252,
2011-08-23, 02:30:05,VALID,1009.587,VALID,0.0,VALID,104.0,VALID,0.106,VALID,21.803,VALID,337.0,VALID,0.243,
2011-08-23, 02:31:05,VALID,1009.597,VALID,0.0,VALID,104.0,VALID,0.106,VALID,21.824,VALID,337.0,VALID,0.203,
2011-08-23, 02:32:05,VALID,1009.55,VALID,0.0,VALID,104.0,VALID,0.106,VALID,21.804,VALID,337.0,VALID,0.073,
2011-08-23, 02:33:05,VALID,1009.558,VALID,0.0,VALID,104.0,VALID,0.106,VALID,21.804,VALID,337.0,VALID,0.0,
2011-08-23, 02:34:05,VALID,1009.556,VALID,0.0,VALID,104.0,VALID,0.0,VALID,21.806,VALID,337.0,VALID,0.002,
2011-08-23, 02:35:05,VALID,1009.562,VALID,0.0,VALID,104.0,VALID,0.0,VALID,21.806,VALID,337.0,VALID,0.227,
2011-08-23, 02:36:05,VALID,1009.566,VALID,0.0,VALID,104.0,VALID,0.0,VALID,21.804,VALID,337.0,VALID,0.427,
2011-08-23, 02:37:05,VALID,1009.599,VALID,0.0,VALID,104.0,VALID,0.0,VALID,21.804,VALID,337.0,VALID,0.341,
2011-08-23, 02:38:05,VALID,1009.623,VALID,0.0,VALID,104.0,VALID,0.0,VALID,21.806,VALID,337.0,VALID,0.345,
2011-08-23, 02:39:05,VALID,1009.605,VALID,0.0,VALID,104.0,VALID,0.0,VALID,21.806,VALID,337.0,VALID,0.1,
2011-08-23, 02:40:05,VALID,1009.635,VALID,0.0,VALID,104.0,VALID,0.0,VALID,21.785,VALID,337.0,VALID,0.28,
2011-08-23, 02:41:05,VALID,1009.65,VALID,0.0,VALID,104.0,VALID,0.0,VALID,21.826,VALID,337.0,VALID,0.339,
2011-08-23, 02:42:05,VALID,1009.641,VALID,0.0,VALID,104.0,VALID,0.0,VALID,21.785,VALID,337.0,VALID,0.221,
2011-08-23, 02:43:05,VALID,1009.665,VALID,0.0,VALID,104.0,VALID,0.0,VALID,21.806,VALID,337.0,VALID,0.284,
2011-08-23, 02:44:05,VALID,1009.673,VALID,0.0,VALID,104.0,VALID,0.0,VALID,21.766,VALID,337.0,VALID,0.31,
2011-08-23, 02:45:05,VALID,1009.671,VALID,0.0,VALID,104.0,VALID,0.0,VALID,21.787,VALID,337.0,VALID,0.405,
2011-08-23, 02:46:05,VALID,1009.7,VALID,0.0,VALID,104.0,VALID,0.0,VALID,21.787,VALID,337.0,VALID,0.222,
2011-08-23, 02:47:05,VALID,1009.732,VALID,0.0,VALID,104.0,VALID,0.0,VALID,21.766,VALID,337.0,VALID,0.269,
2011-08-23, 02:48:05,VALID,1009.706,VALID,0.0,VALID,104.0,VALID,0.0,VALID,21.767,VALID,337.0,VALID,0.443,
2011-08-23, 02:49:05,VALID,1009.714,VALID,0.0,VALID,104.0,VALID,0.106,VALID,21.766,VALID,337.0,VALID,0.214,
2011-08-23, 02:50:05,VALID,1009.72,VALID,0.0,VALID,104.0,VALID,0.106,VALID,21.766,VALID,337.0,VALID,0.151,
2011-08-23, 02:51:05,VALID,1009.716,VALID,0.0,VALID,104.0,VALID,0.106,VALID,21.725,VALID,337.0,VALID,0.0,
2011-08-23, 02:52:05,VALID,1009.72,VALID,0.0,VALID,104.0,VALID,0.106,VALID,21.764,VALID,337.0,VALID,0.06,
2011-08-23, 02:53:05,VALID,1009.701,VALID,0.0,VALID,104.0,VALID,0.106,VALID,21.785,VALID,337.0,VALID,0.146,
2011-08-23, 02:54:05,VALID,1009.708,VALID,0.0,VALID,104.0,VALID,0.0,VALID,21.744,VALID,337.0,VALID,0.0,
2011-08-23, 02:55:05,VALID,1009.705,VALID,0.0,VALID,104.0,VALID,0.106,VALID,21.766,VALID,337.0,VALID,0.0,
2011-08-23, 02:56:05,VALID,1009.677,VALID,0.0,VALID,104.0,VALID,0.106,VALID,21.746,VALID,337.0,VALID,0.0,
2011-08-23, 02:57:05,VALID,1009.649,VALID,0.0,VALID,104.0,VALID,0.0,VALID,21.766,VALID,337.0,VALID,0.086,
2011-08-23, 02:58:05,VALID,1009.656,VALID,0.0,VALID,104.0,VALID,0.0,VALID,21.785,VALID,337.0,VALID,0.121,
2011-08-23, 02:59:05,VALID,1009.622,VALID,0.0,VALID,104.0,VALID,0.106,VALID,21.764,VALID,337.0,VALID,0.0,
2011-08-23, 03:00:05,VALID,1009.63,VALID,0.0,VALID,104.0,VALID,0.106,VALID,21.783,VALID,337.0,VALID,0.178,
2011-08-23, 03:01:05,VALID,1009.635,VALID,0.0,VALID,104.0,VALID,0.106,VALID,21.783,VALID,337.0,VALID,0.245,
2011-08-23, 03:02:05,VALID,1009.609,VALID,0.0,VALID,104.0,VALID,0.106,VALID,21.764,VALID,337.0,VALID,0.277,
2011-08-23, 03:03:05,VALID,1009.591,VALID,0.0,VALID,104.0,VALID,0.106,VALID,21.764,VALID,337.0,VALID,0.315,
2011-08-23, 03:04:05,VALID,1009.581,VALID,0.0,VALID,104.0,VALID,0.0,VALID,21.767,VALID,336.0,VALID,0.407,
2011-08-23, 03:05:05,VALID,1009.596,VALID,0.0,VALID,104.0,VALID,0.0,VALID,21.746,VALID,337.0,VALID,0.335,
2011-08-23, 03:06:05,VALID,1009.593,VALID,0.0,VALID,104.0,VALID,0.0,VALID,21.787,VALID,337.0,VALID,0.1,
2011-08-23, 03:07:05,VALID,1009.586,VALID,0.0,VALID,104.0,VALID,0.0,VALID,21.766,VALID,337.0,VALID,0.0,
2011-08-23, 03:08:05,VALID,1009.575,VALID,0.0,VALID,104.0,VALID,0.0,VALID,21.766,VALID,337.0,VALID,0.0,
2011-08-23, 03:09:05,VALID,1009.58,VALID,0.0,VALID,104.0,VALID,0.0,VALID,21.787,VALID,337.0,VALID,0.0,
2011-08-23, 03:10:05,VALID,1009.582,VALID,0.0,VALID,104.0,VALID,0.0,VALID,21.767,VALID,337.0,VALID,0.0,
2011-08-23, 03:11:05,VALID,1009.579,VALID,0.0,VALID,104.0,VALID,0.0,VALID,21.748,VALID,337.0,VALID,0.42,
2011-08-23, 03:12:05,VALID,1009.584,VALID,0.0,VALID,104.0,VALID,0.0,VALID,21.728,VALID,337.0,VALID,0.239,
2011-08-23, 03:13:05,VALID,1009.58,VALID,0.0,VALID,104.0,VALID,0.0,VALID,21.728,VALID,337.0,VALID,0.215,
2011-08-23, 03:14:05,VALID,1009.57,VALID,0.0,VALID,104.0,VALID,0.0,VALID,21.707,VALID,337.0,VALID,0.404,
2011-08-23, 03:15:05,VALID,1009.573,VALID,0.0,VALID,104.0,VALID,0.0,VALID,21.688,VALID,337.0,VALID,0.114,
2011-08-23, 03:16:05,VALID,1009.56,VALID,0.0,VALID,104.0,VALID,0.0,VALID,21.709,VALID,337.0,VALID,0.002,
2011-08-23, 03:17:05,VALID,1009.544,VALID,0.0,VALID,104.0,VALID,0.0,VALID,21.709,VALID,337.0,VALID,0.005,
2011-08-23, 03:18:05,VALID,1009.55,VALID,0.0,VALID,104.0,VALID,0.0,VALID,21.689,VALID,337.0,VALID,0.0,
2011-08-23, 03:19:05,VALID,1009.542,VALID,0.0,VALID,104.0,VALID,0.106,VALID,21.668,VALID,337.0,VALID,0.0,
2011-08-23, 03:20:05,VALID,1009.523,VALID,0.0,VALID,104.0,VALID,0.106,VALID,21.647,VALID,337.0,VALID,0.0,
2011-08-23, 03:21:05,VALID,1009.521,VALID,0.0,VALID,104.0,VALID,0.0,VALID,21.668,VALID,337.0,VALID,0.001,
2011-08-23, 03:22:05,VALID,1009.542,VALID,0.0,VALID,104.0,VALID,0.0,VALID,21.628,VALID,337.0,VALID,0.138,
2011-08-23, 03:23:05,VALID,1009.579,VALID,0.0,VALID,104.0,VALID,0.106,VALID,21.608,VALID,337.0,VALID,0.0,
2011-08-23, 03:24:05,VALID,1009.575,VALID,0.0,VALID,104.0,VALID,0.106,VALID,21.608,VALID,337.0,VALID,0.0,
2011-08-23, 03:25:05,VALID,1009.589,VALID,0.0,VALID,104.0,VALID,0.106,VALID,21.589,VALID,337.0,VALID,0.178,
2011-08-23, 03:26:05,VALID,1009.61,VALID,0.0,VALID,104.0,VALID,0.106,VALID,21.61,VALID,337.0,VALID,0.044,
2011-08-23, 03:27:05,VALID,1009.6,VALID,0.0,VALID,104.0,VALID,0.106,VALID,21.589,VALID,337.0,VALID,0.0,
2011-08-23, 03:28:05,VALID,1009.616,VALID,0.0,VALID,104.0,VALID,0.0,VALID,21.589,VALID,337.0,VALID,0.0,
2011-08-23, 03:29:05,VALID,1009.588,VALID,0.0,VALID,104.0,VALID,0.106,VALID,21.628,VALID,337.0,VALID,0.03,
2011-08-23, 03:30:05,VALID,1009.574,VALID,0.0,VALID,104.0,VALID,0.106,VALID,21.628,VALID,337.0,VALID,0.0,
2011-08-23, 03:31:05,VALID,1009.555,VALID,0.0,VALID,104.0,VALID,0.106,VALID,21.649,VALID,337.0,VALID,0.0,
2011-08-23, 03:32:05,VALID,1009.534,VALID,0.0,VALID,104.0,VALID,0.106,VALID,21.608,VALID,337.0,VALID,0.0,
2011-08-23, 03:33:05,VALID,1009.519,VALID,0.0,VALID,104.0,VALID,0.0,VALID,21.629,VALID,337.0,VALID,0.0,
2011-08-23, 03:34:05,VALID,1009.51,VALID,0.0,VALID,104.0,VALID,0.106,VALID,21.589,VALID,337.0,VALID,0.0,
2011-08-23, 03:35:05,VALID,1009.499,VALID,0.0,VALID,104.0,VALID,0.0,VALID,21.629,VALID,337.0,VALID,0.111,
2011-08-23, 03:36:05,VALID,1009.498,VALID,0.0,VALID,104.0,VALID,0.0,VALID,21.629,VALID,337.0,VALID,0.0,
2011-08-23, 03:37:05,VALID,1009.51,VALID,0.0,VALID,104.0,VALID,0.106,VALID,21.629,VALID,337.0,VALID,0.0,
2011-08-23, 03:38:05,VALID,1009.5,VALID,0.0,VALID,104.0,VALID,0.0,VALID,21.589,VALID,337.0,VALID,0.0,
2011-08-23, 03:39:05,VALID,1009.513,VALID,0.0,VALID,104.0,VALID,0.106,VALID,21.569,VALID,337.0,VALID,0.0,
2011-08-23, 03:40:04,VALID,1009.488,VALID,0.0,VALID,104.0,VALID,0.106,VALID,21.668,VALID,337.0,VALID,0.064,
2011-08-23, 03:41:04,VALID,1009.493,VALID,0.0,VALID,104.0,VALID,0.106,VALID,21.688,VALID,337.0,VALID,0.155,